Погода Боковская

Погода Боковская : погода сейчас, прогноз погоды и архив. Всё, что Вы хотите узнать о погоде Боковская!

Хотите узнать прогноз погоды Боковская? Тогда Вам сюда: Погода Боковская

Поиск расширенной информации на нашем сайте:

Другие новости

Новости СМИ2

Главная страница сайта

Новости сайта

03.07.2017

Напоминаем, что на нашем специализированном сайте Метеоцентр.Азия вы можете получить высокодетализированные автоматические прогнозы погоды по пунктам России, СНГ и мира в авиационном формате (включающие направление и скорость ветра, видимость, явления погоды, количество и форму облачности, нижнюю и верхнюю границу облачности).


Погода Боковская - сегодня

Время (UTC), дата Ветер
(°,м/с) 
Видим.   Явления Облачность Т
(°С)
Тd
(°С)
f(%) Тe
(°С)
Pmin
(гПа)
dP
(гПа)
Po
(мм)
O2
(г/м3)
Тmin Tmax R s Состояние
почвы
06 12.11.18 090 (В) 5-10  20000 м    6/0 средняя 
[Ac As]
-6.1 -12 63 -10  1043.6  0.5  774  320  -7.9         
09 12.11.18 090 (В) 5{15}  20000 м    8/5 100 м кучево-дожд., средняя 
[Cb cap|Ac As]
-3.3 -15 40 -7  1043.3  -0.2  773  317           
12 12.11.18 080 (В) 5{12}  20000 м    10/6 1000 м кучево-дожд., средняя 
[Cb cap|Ac As]
-3.1 -17 33 -7  1043.1  -0.2  773  317           
15 12.11.18 080 (В) 6-12  20000 м    10/8 1000 м кучево-дожд., средняя 
[Cb cap|Ac As]
-3.6 -17.5 33 -8  1043.4  0.2  773  317    -2.7       
18 12.11.18 090 (В) 4{12}  20000 м    6/0 верхняя 
[Ci fib]
-4.9 -16.2 41 -8  1043.4  773  319           
21 12.11.18 090 (В) 4{10}  20000 м    10/10 600 м 
[Sc]
-5.3 -15.9 43 -9  1042.9  -0.5  773  319           
00 13.11.18 070 (В) 3{11}  20000 м    10/10 600 м 
[Sc]
-6 -15.1 49 -9  1042  -1  772  320           
03 13.11.18 080 (В) 20000 м    10/10 600 м 
[Sc]
-6 -14.2 52 -9  1041.6  -0.4  772  319  -6.4        замёрзшая 
06 13.11.18 080 (В) 3{11}  20000 м    10/10 600 м 
[Sc]
-5.3 -14.5 48 -8  1041.6  772  319           
09 13.11.18 080 (В) 4{11}  20000 м    8/0 средняя, верхняя 
[Ac lent|Ci fib]
-1 -15.8 32 -4  1041.1  -0.3  772  313           
12 13.11.18 090 (В) 4{12}  20000 м    8/0 средняя 
[Ac trans]
-0.8 -18 26 -3  1040.8  -0.3  772  313           
15 13.11.18 100 (В) 20000 м    3/3 1000 м 
[Sc]
-3.4 -15.9 37 -5  1041.3  0.4  772  316    +0.3       
18 13.11.18 090 (В) 20000 м    ясно 
-4.4 -14.5 45 -7  1041  -0.4  772  317           
21 13.11.18 090 (В) 20000 м    ясно 
-5.9 -14.2 52 -9  1039.9  -1.1  771  319           
00 14.11.18 090 (В) 20000 м    ясно 
-7.5 -14.3 58 -9  1039.4  -0.6  770  320           
03 14.11.18 110 (В) 20000 м    ясно 
-8.3 -14 63 -10  1038  -1.4  769  321  -8.3        замёрзшая 
06 14.11.18 100 (В) 20000 м    3/0 верхняя 
[Ci fib]
-6.3 -12.3 62 -9  1037.5  -0.4  769  318  -9.6         
09 14.11.18 120 (ЮВ) 20000 м    ясно 
+0.1 -9.1 50 -2  1035.7  -1.5  768  310           
12 14.11.18 110 (В) 20000 м    ясно 
+3.1 -13.9 27 +2  1034.1  -1.4  767  307           
15 14.11.18 080 (В) 20000 м    ясно 
-1.7 -15.1 35 -1  1033.9  -0.4  767  312    +3.1       
18 14.11.18 100 (В) 20000 м    4/0 средняя 
[Ac trans]
-3.3 -15.8 37 -3  1034.1  0.1  767  314           
21 14.11.18 110 (В) 20000 м    10/0 средняя 
[As op]
-1.8 -15.1 35 -5  1033.3  -0.7  766  312           
00 15.11.18 110 (В) 20000 м    10/0 средняя 
[Ac As]
-2.3 -15.5 36 -5  1032.8  -0.5  766  312           
03 15.11.18 090 (В) 20000 м    ясно 
-5.8 -14.7 49 -5  1033.5  0.6  766  317  -5.8        сухая 
06 15.11.18 070 (В) 20000 м    8/0 средняя, верхняя 
[Ac As|Ci fib]
-6.1 -13.9 54 -9  1034.2  0.6  767  317  -7.3         
Время (UTC), дата Ветер
(°,м/с) 
Видим.   Явления Облачность Т
(°С)
Тd
(°С)
f(%) Тe
(°С)
Pmin
(гПа)
dP
(гПа)
Po
(мм)
O2
(г/м3)
Тmin Tmax R s Состояние
почвы

Для получения пояснительной информации подведите курсор к названию столбца.

ПОГОДА Боковская - архив

Всё, что Вы хотите узнать о погоде Боковская - удобно и подробно!

Выберите нужную дату (начиная с 1 января 2015* года) и нажмите кнопку "Найти".
Будут отображены архивные сводки погоды по пункту Боковская, начиная с указанной даты.


Отображать данные в формате CSV (для использования в таблицах Excel)


Внимание! Наш архив погоды предназначен исключительно для личного некоммерческого использования в познавательных целях. Если Вам необходимы официальные справки о состоянии погоды (для производственных, юридических, коммерческих и т.п. целей), обращайтесь в органы Росгидромета.

*Примечание: данная дата относится к архиву по метеостанциям СССР (Россия, СНГ, Балтия).
Архив по метеостанциям Зарубежной Европы и Азии (кроме Китая) хранится 10 дней, по другим регионам земного шара (Китай, Африка, Америка, Австралия, Океания) - 1 день.

Боковская - район местоположения метеостанции


Название, широта, долгота, высота метеостанции:
Боковская 49.2°ш. 41.8°д. 91 м над ур. моря [Российская Федерация]

Дополнительная информация

В oтличие oт бoльшинства пoгoдных сайтoв мы публикуем пoдрoбную метеoинфoрмацию в детальнoм прoфессиoнальнoм фoрмате.

Характеристики температуры и влажнoсти вoздуха измеряются на высoте 2 м в тени вдали oт зданий и деревьев.
Скoрoсть ветра измеряется на высoте 10 м (на урoвне рoста челoвека скoрoсть ветра ниже в 1.5-2 раза). Если метеoстанция нахoдится в гoрoде или в лесу, тo скoрoсть ветра занижена на 2-4 м/с пo сравнению с oткрытым местoм. Скoрoсть ветра над акватoриями крупных рек и oзёр, а также на вершинах хoлмoв на 2-5 м/с выше, чем в oбычных услoвиях.
Атмoсфернoе давление в разных тoчках местнoсти мoжет значительнo oтличаться oт давления на метеoстанции, в зависимoсти oт услoвий рельефа (при пoдъёме на 10 м давление пoнижается примернo на 1 мм рт.ст.).